M I D A S
Marine Information and Data Acquisition System
Tripno 1269 of the Zeeleeuw from 2007-05-08 12:31:52 to 2007-05-08 13:35:23
Back to CruiseResearch ActivitiesStationsMapUnderway DataData graphs

EquipmentUnitsComments
TimeDGPSUTC
LatitudeDGPSDM.mWGS84
LongitudeDGPSDM.mWGS84
SpeedMeteo Stationm/sRelative wind speed
DirectionMeteo StationdegRelative wind direction
TemperatureMeteo Stationdeg CelciusAir temperature
PressureMeteo StationPaAtmospheric pressure
HumidityMeteo Station%Relative humidity
Missing or incorrect values are displayed as -999
Metereological data collected by the RV Zeeleeuw from 2007-05-08 07:31:53 to 2007-05-08 13:50:53
                                                                                    Next 1000 lines
Time Latitude Longitude Speed Direction Temperature Pressure Humidity
2007-05-08 07:32:03 51°13.714 2°55.752 -999 -999 -999 -999 -999
2007-05-08 07:32:08 51°13.718 2°55.75 -999 -999 -999 -999 -999
2007-05-08 07:32:13 51°13.724 2°55.746 -999 -999 -999 -999 -999
2007-05-08 07:32:18 51°13.73 2°55.741 -999 -999 -999 -999 -999
2007-05-08 07:32:23 51°13.736 2°55.734 -999 -999 -999 -999 -999
2007-05-08 07:32:28 51°13.743 2°55.727 -999 -999 -999 -999 -999
2007-05-08 07:32:33 51°13.751 2°55.718 -999 -999 -999 -999 -999
2007-05-08 07:32:38 51°13.758 2°55.709 -999 -999 -999 -999 -999
2007-05-08 07:32:43 51°13.767 2°55.7 -999 -999 -999 -999 -999
2007-05-08 07:32:48 51°13.776 2°55.69 -999 -999 -999 -999 -999
2007-05-08 07:32:53 51°13.786 2°55.68 -999 -999 -999 -999 -999
2007-05-08 07:32:58 51°13.795 2°55.67 -999 -999 -999 -999 -999
2007-05-08 07:33:03 51°13.805 2°55.659 -999 -999 -999 -999 -999
2007-05-08 07:33:08 51°13.815 2°55.649 -999 -999 -999 -999 -999
2007-05-08 07:33:13 51°13.826 2°55.639 -999 -999 -999 -999 -999
2007-05-08 07:33:18 51°13.837 2°55.629 -999 -999 -999 -999 -999
2007-05-08 07:33:23 51°13.848 2°55.62 -999 -999 -999 -999 -999
2007-05-08 07:33:28 51°13.86 2°55.611 -999 -999 -999 -999 -999
2007-05-08 07:33:33 51°13.872 2°55.602 -999 -999 -999 -999 -999
2007-05-08 07:33:38 51°13.884 2°55.593 -999 -999 -999 -999 -999
2007-05-08 07:33:43 51°13.896 2°55.585 -999 -999 -999 -999 -999
2007-05-08 07:33:48 51°13.908 2°55.576 -999 -999 -999 -999 -999
2007-05-08 07:33:53 51°13.92 2°55.569 -999 -999 -999 -999 -999
2007-05-08 07:33:58 51°13.933 2°55.561 -999 -999 -999 -999 -999
2007-05-08 07:34:03 51°13.946 2°55.553 -999 -999 -999 -999 -999
2007-05-08 07:34:08 51°13.958 2°55.544 -999 -999 -999 -999 -999
2007-05-08 07:34:13 51°13.971 2°55.537 -999 -999 -999 -999 -999
2007-05-08 07:34:18 51°13.984 2°55.529 -999 -999 -999 -999 -999
2007-05-08 07:34:23 51°13.997 2°55.521 -999 -999 -999 -999 -999
2007-05-08 07:34:28 51°14.01 2°55.514 -999 -999 -999 -999 -999
2007-05-08 07:34:33 51°14.022 2°55.506 -999 -999 -999 -999 -999
2007-05-08 07:34:38 51°14.035 2°55.497 -999 -999 -999 -999 -999
2007-05-08 07:34:43 51°14.048 2°55.49 -999 -999 -999 -999 -999
2007-05-08 07:34:48 51°14.061 2°55.482 -999 -999 -999 -999 -999
2007-05-08 07:34:53 51°14.074 2°55.474 -999 -999 -999 -999 -999
2007-05-08 07:34:58 51°14.086 2°55.466 -999 -999 -999 -999 -999
2007-05-08 07:35:03 51°14.099 2°55.458 -999 -999 -999 -999 -999
2007-05-08 07:35:08 51°14.111 2°55.449 -999 -999 -999 -999 -999
2007-05-08 07:35:13 51°14.123 2°55.439 -999 -999 -999 -999 -999
2007-05-08 07:35:18 51°14.136 2°55.43 -999 -999 -999 -999 -999
2007-05-08 07:35:23 51°14.148 2°55.419 -999 -999 -999 -999 -999
2007-05-08 07:35:28 51°14.161 2°55.409 -999 -999 -999 -999 -999
2007-05-08 07:35:33 51°14.173 2°55.398 -999 -999 -999 -999 -999
2007-05-08 07:35:38 51°14.185 2°55.386 -999 -999 -999 -999 -999
2007-05-08 07:35:43 51°14.197 2°55.372 -999 -999 -999 -999 -999
2007-05-08 07:35:48 51°14.209 2°55.358 -999 -999 -999 -999 -999
2007-05-08 07:35:53 51°14.221 2°55.342 -999 -999 -999 -999 -999
2007-05-08 07:35:58 51°14.232 2°55.327 -999 -999 -999 -999 -999
2007-05-08 07:36:03 51°14.244 2°55.311 -999 -999 -999 -999 -999
2007-05-08 07:36:08 51°14.256 2°55.294 -999 -999 -999 -999 -999
2007-05-08 07:36:13 51°14.267 2°55.276 -999 -999 -999 -999 -999
2007-05-08 07:36:18 51°14.277 2°55.258 -999 -999 -999 -999 -999
2007-05-08 07:36:23 51°14.288 2°55.238 -999 -999 -999 -999 -999
2007-05-08 07:36:28 51°14.298 2°55.218 -999 -999 -999 -999 -999
2007-05-08 07:36:33 51°14.307 2°55.198 -999 -999 -999 -999 -999
2007-05-08 07:36:38 51°14.317 2°55.177 -999 -999 -999 -999 -999
2007-05-08 07:36:43 51°14.326 2°55.156 -999 -999 -999 -999 -999
2007-05-08 07:36:48 51°14.336 2°55.134 -999 -999 -999 -999 -999
2007-05-08 07:36:53 51°14.345 2°55.113 -999 -999 -999 -999 -999
2007-05-08 07:36:58 51°14.355 2°55.091 -999 -999 -999 -999 -999
2007-05-08 07:37:03 51°14.364 2°55.069 -999 -999 -999 -999 -999
2007-05-08 07:37:08 51°14.374 2°55.047 -999 -999 -999 -999 -999
2007-05-08 07:37:13 51°14.383 2°55.025 -999 -999 -999 -999 -999
2007-05-08 07:37:18 51°14.393 2°55.002 -999 -999 -999 -999 -999
2007-05-08 07:37:23 51°14.403 2°54.98 -999 -999 -999 -999 -999
2007-05-08 07:37:28 51°14.413 2°54.958 -999 -999 -999 -999 -999
2007-05-08 07:37:33 51°14.422 2°54.935 -999 -999 -999 -999 -999
2007-05-08 07:37:38 51°14.432 2°54.912 -999 -999 -999 -999 -999
2007-05-08 07:37:43 51°14.441 2°54.888 -999 -999 -999 -999 -999
2007-05-08 07:37:48 51°14.451 2°54.864 -999 -999 -999 -999 -999
2007-05-08 07:37:53 51°14.461 2°54.84 -999 -999 -999 -999 -999
2007-05-08 07:37:58 51°14.471 2°54.816 -999 -999 -999 -999 -999
2007-05-08 07:38:03 51°14.481 2°54.792 -999 -999 -999 -999 -999
2007-05-08 07:38:08 51°14.491 2°54.767 -999 -999 -999 -999 -999
2007-05-08 07:38:13 51°14.501 2°54.742 -999 -999 -999 -999 -999
2007-05-08 07:38:18 51°14.51 2°54.717 -999 -999 -999 -999 -999
2007-05-08 07:38:23 51°14.519 2°54.692 -999 -999 -999 -999 -999
2007-05-08 07:38:28 51°14.526 2°54.666 -999 -999 -999 -999 -999
2007-05-08 07:38:33 51°14.534 2°54.639 -999 -999 -999 -999 -999
2007-05-08 07:38:38 51°14.541 2°54.612 -999 -999 -999 -999 -999
2007-05-08 07:38:43 51°14.547 2°54.585 -999 -999 -999 -999 -999
2007-05-08 07:38:48 51°14.553 2°54.558 -999 -999 -999 -999 -999
2007-05-08 07:38:53 51°14.56 2°54.531 -999 -999 -999 -999 -999
2007-05-08 07:38:58 51°14.566 2°54.503 -999 -999 -999 -999 -999
2007-05-08 07:39:03 51°14.572 2°54.475 -999 -999 -999 -999 -999
2007-05-08 07:39:08 51°14.577 2°54.448 -999 -999 -999 -999 -999
2007-05-08 07:39:13 51°14.583 2°54.419 -999 -999 -999 -999 -999
2007-05-08 07:39:18 51°14.588 2°54.391 -999 -999 -999 -999 -999
2007-05-08 07:39:23 51°14.593 2°54.363 -999 -999 -999 -999 -999
2007-05-08 07:39:28 51°14.598 2°54.335 -999 -999 -999 -999 -999
2007-05-08 07:39:33 51°14.602 2°54.307 -999 -999 -999 -999 -999
2007-05-08 07:39:38 51°14.607 2°54.279 -999 -999 -999 -999 -999
2007-05-08 07:39:43 51°14.612 2°54.251 -999 -999 -999 -999 -999
2007-05-08 07:39:48 51°14.617 2°54.223 -999 -999 -999 -999 -999
2007-05-08 07:39:53 51°14.622 2°54.195 -999 -999 -999 -999 -999
2007-05-08 07:39:58 51°14.626 2°54.167 -999 -999 -999 -999 -999
2007-05-08 07:40:03 51°14.631 2°54.139 -999 -999 -999 -999 -999
2007-05-08 07:40:08 51°14.635 2°54.111 -999 -999 -999 -999 -999
2007-05-08 07:40:13 51°14.638 2°54.082 -999 -999 -999 -999 -999
2007-05-08 07:40:18 51°14.642 2°54.054 -999 -999 -999 -999 -999
2007-05-08 07:40:23 51°14.644 2°54.026 -999 -999 -999 -999 -999
2007-05-08 07:40:28 51°14.647 2°53.997 -999 -999 -999 -999 -999
2007-05-08 07:40:33 51°14.649 2°53.969 -999 -999 -999 -999 -999
2007-05-08 07:40:38 51°14.651 2°53.94 -999 -999 -999 -999 -999
2007-05-08 07:40:43 51°14.653 2°53.912 -999 -999 -999 -999 -999
2007-05-08 07:40:48 51°14.656 2°53.884 -999 -999 -999 -999 -999
2007-05-08 07:40:53 51°14.658 2°53.856 -999 -999 -999 -999 -999
2007-05-08 07:40:58 51°14.66 2°53.828 -999 -999 -999 -999 -999
2007-05-08 07:41:03 51°14.662 2°53.799 -999 -999 -999 -999 -999
2007-05-08 07:41:08 51°14.664 2°53.771 -999 -999 -999 -999 -999
2007-05-08 07:41:13 51°14.666 2°53.742 -999 -999 -999 -999 -999
2007-05-08 07:41:18 51°14.668 2°53.714 -999 -999 -999 -999 -999
2007-05-08 07:41:23 51°14.67 2°53.685 -999 -999 -999 -999 -999
2007-05-08 07:41:28 51°14.671 2°53.657 -999 -999 -999 -999 -999
2007-05-08 07:41:33 51°14.673 2°53.628 -999 -999 -999 -999 -999
2007-05-08 07:41:38 51°14.675 2°53.6 -999 -999 -999 -999 -999
2007-05-08 07:41:43 51°14.676 2°53.571 -999 -999 -999 -999 -999
2007-05-08 07:41:48 51°14.679 2°53.543 -999 -999 -999 -999 -999
2007-05-08 07:41:53 51°14.681 2°53.515 -999 -999 -999 -999 -999
2007-05-08 07:41:58 51°14.683 2°53.487 -999 -999 -999 -999 -999
2007-05-08 07:42:03 51°14.685 2°53.459 -999 -999 -999 -999 -999
2007-05-08 07:42:08 51°14.686 2°53.431 -999 -999 -999 -999 -999
2007-05-08 07:42:13 51°14.688 2°53.403 -999 -999 -999 -999 -999
2007-05-08 07:42:18 51°14.691 2°53.375 -999 -999 -999 -999 -999
2007-05-08 07:42:23 51°14.692 2°53.346 -999 -999 -999 -999 -999
2007-05-08 07:42:28 51°14.694 2°53.318 -999 -999 -999 -999 -999
2007-05-08 07:42:33 51°14.696 2°53.29 -999 -999 -999 -999 -999
2007-05-08 07:42:38 51°14.696 2°53.262 -999 -999 -999 -999 -999
2007-05-08 07:42:43 51°14.696 2°53.234 -999 -999 -999 -999 -999
2007-05-08 07:42:48 51°14.695 2°53.206 -999 -999 -999 -999 -999
2007-05-08 07:42:53 51°14.694 2°53.178 -999 -999 -999 -999 -999
2007-05-08 07:42:58 51°14.691 2°53.15 -999 -999 -999 -999 -999
2007-05-08 07:43:03 51°14.689 2°53.121 -999 -999 -999 -999 -999
2007-05-08 07:43:08 51°14.686 2°53.093 -999 -999 -999 -999 -999
2007-05-08 07:43:13 51°14.684 2°53.065 -999 -999 -999 -999 -999
2007-05-08 07:43:18 51°14.682 2°53.037 -999 -999 -999 -999 -999
2007-05-08 07:43:23 51°14.68 2°53.008 -999 -999 -999 -999 -999
2007-05-08 07:43:28 51°14.679 2°52.98 -999 -999 -999 -999 -999
2007-05-08 07:43:33 51°14.677 2°52.951 -999 -999 -999 -999 -999
2007-05-08 07:43:38 51°14.676 2°52.923 -999 -999 -999 -999 -999
2007-05-08 07:43:43 51°14.675 2°52.894 -999 -999 -999 -999 -999
2007-05-08 07:43:48 51°14.674 2°52.866 -999 -999 -999 -999 -999
2007-05-08 07:43:53 51°14.673 2°52.837 -999 -999 -999 -999 -999
2007-05-08 07:43:58 51°14.672 2°52.809 -999 -999 -999 -999 -999
2007-05-08 07:44:03 51°14.671 2°52.78 -999 -999 -999 -999 -999
2007-05-08 07:44:08 51°14.67 2°52.752 -999 -999 -999 -999 -999
2007-05-08 07:44:13 51°14.669 2°52.723 -999 -999 -999 -999 -999
2007-05-08 07:44:18 51°14.667 2°52.695 -999 -999 -999 -999 -999
2007-05-08 07:44:23 51°14.666 2°52.667 -999 -999 -999 -999 -999
2007-05-08 07:44:28 51°14.666 2°52.638 -999 -999 -999 -999 -999
2007-05-08 07:44:33 51°14.665 2°52.61 -999 -999 -999 -999 -999
2007-05-08 07:44:38 51°14.663 2°52.581 -999 -999 -999 -999 -999
2007-05-08 07:44:43 51°14.662 2°52.553 -999 -999 -999 -999 -999
2007-05-08 07:44:48 51°14.661 2°52.525 -999 -999 -999 -999 -999
2007-05-08 07:44:53 51°14.661 2°52.496 -999 -999 -999 -999 -999
2007-05-08 07:44:58 51°14.659 2°52.468 -999 -999 -999 -999 -999
2007-05-08 07:45:03 51°14.658 2°52.439 -999 -999 -999 -999 -999
2007-05-08 07:45:08 51°14.657 2°52.411 -999 -999 -999 -999 -999
2007-05-08 07:45:13 51°14.656 2°52.382 -999 -999 -999 -999 -999
2007-05-08 07:45:18 51°14.655 2°52.354 -999 -999 -999 -999 -999
2007-05-08 07:45:23 51°14.654 2°52.326 -999 -999 -999 -999 -999
2007-05-08 07:45:28 51°14.653 2°52.298 -999 -999 -999 -999 -999
2007-05-08 07:45:33 51°14.652 2°52.27 -999 -999 -999 -999 -999
2007-05-08 07:45:38 51°14.652 2°52.242 -999 -999 -999 -999 -999
2007-05-08 07:45:43 51°14.651 2°52.213 -999 -999 -999 -999 -999
2007-05-08 07:45:48 51°14.65 2°52.184 -999 -999 -999 -999 -999
2007-05-08 07:45:53 51°14.649 2°52.157 -999 -999 -999 -999 -999
2007-05-08 07:45:58 51°14.648 2°52.131 -999 -999 -999 -999 -999
2007-05-08 07:46:03 51°14.648 2°52.107 -999 -999 -999 -999 -999
2007-05-08 07:46:08 51°14.647 2°52.085 -999 -999 -999 -999 -999
2007-05-08 07:46:13 51°14.646 2°52.064 -999 -999 -999 -999 -999
2007-05-08 07:46:18 51°14.645 2°52.045 -999 -999 -999 -999 -999
2007-05-08 07:46:23 51°14.642 2°52.028 -999 -999 -999 -999 -999
2007-05-08 07:46:28 51°14.638 2°52.013 -999 -999 -999 -999 -999
2007-05-08 07:46:33 51°14.633 2°52.002 -999 -999 -999 -999 -999
2007-05-08 07:46:38 51°14.628 2°51.993 -999 -999 -999 -999 -999
2007-05-08 07:46:43 51°14.624 2°51.985 -999 -999 -999 -999 -999
2007-05-08 07:46:48 51°14.619 2°51.979 -999 -999 -999 -999 -999
2007-05-08 07:46:53 51°14.615 2°51.973 -999 -999 -999 -999 -999
2007-05-08 07:46:58 51°14.612 2°51.968 -999 -999 -999 -999 -999
2007-05-08 07:47:03 51°14.609 2°51.965 -999 -999 -999 -999 -999
2007-05-08 07:47:08 51°14.606 2°51.963 -999 -999 -999 -999 -999
2007-05-08 07:47:13 51°14.603 2°51.961 -999 -999 -999 -999 -999
2007-05-08 07:47:18 51°14.6 2°51.959 -999 -999 -999 -999 -999
2007-05-08 07:47:23 51°14.597 2°51.957 -999 -999 -999 -999 -999
2007-05-08 07:47:28 51°14.595 2°51.957 -999 -999 -999 -999 -999
2007-05-08 07:47:33 51°14.592 2°51.956 -999 -999 -999 -999 -999
2007-05-08 07:47:38 51°14.59 2°51.956 -999 -999 -999 -999 -999
2007-05-08 07:47:43 51°14.588 2°51.956 -999 -999 -999 -999 -999
2007-05-08 07:47:48 51°14.586 2°51.956 -999 -999 -999 -999 -999
2007-05-08 07:47:53 51°14.585 2°51.955 -999 -999 -999 -999 -999
2007-05-08 07:47:58 51°14.583 2°51.955 -999 -999 -999 -999 -999
2007-05-08 07:48:03 51°14.582 2°51.955 -999 -999 -999 -999 -999
2007-05-08 07:48:08 51°14.58 2°51.955 -999 -999 -999 -999 -999
2007-05-08 07:48:13 51°14.578 2°51.955 -999 -999 -999 -999 -999
2007-05-08 07:48:18 51°14.577 2°51.955 -999 -999 -999 -999 -999
2007-05-08 07:48:23 51°14.576 2°51.956 -999 -999 -999 -999 -999
2007-05-08 07:48:28 51°14.574 2°51.957 -999 -999 -999 -999 -999
2007-05-08 07:48:33 51°14.573 2°51.957 -999 -999 -999 -999 -999
2007-05-08 07:48:38 51°14.572 2°51.958 -999 -999 -999 -999 -999
2007-05-08 07:48:43 51°14.571 2°51.96 -999 -999 -999 -999 -999
2007-05-08 07:48:48 51°14.571 2°51.961 -999 -999 -999 -999 -999
2007-05-08 07:48:53 51°14.57 2°51.962 -999 -999 -999 -999 -999
2007-05-08 07:48:58 51°14.569 2°51.962 -999 -999 -999 -999 -999
2007-05-08 07:49:03 51°14.569 2°51.963 -999 -999 -999 -999 -999
2007-05-08 07:49:08 51°14.568 2°51.964 -999 -999 -999 -999 -999
2007-05-08 07:49:13 51°14.568 2°51.965 -999 -999 -999 -999 -999
2007-05-08 07:49:18 51°14.567 2°51.967 -999 -999 -999 -999 -999
2007-05-08 07:49:23 51°14.567 2°51.968 -999 -999 -999 -999 -999
2007-05-08 07:49:28 51°14.566 2°51.97 -999 -999 -999 -999 -999
2007-05-08 07:49:33 51°14.566 2°51.972 -999 -999 -999 -999 -999
2007-05-08 07:49:38 51°14.566 2°51.973 -999 -999 -999 -999 -999
2007-05-08 07:49:43 51°14.565 2°51.975 -999 -999 -999 -999 -999
2007-05-08 07:49:48 51°14.565 2°51.976 -999 -999 -999 -999 -999
2007-05-08 07:49:53 51°14.565 2°51.978 -999 -999 -999 -999 -999
2007-05-08 07:49:58 51°14.565 2°51.979 -999 -999 -999 -999 -999
2007-05-08 07:50:03 51°14.564 2°51.98 -999 -999 -999 -999 -999
2007-05-08 07:50:08 51°14.564 2°51.982 -999 -999 -999 -999 -999
2007-05-08 07:50:13 51°14.564 2°51.983 -999 -999 -999 -999 -999
2007-05-08 07:50:18 51°14.564 2°51.984 -999 -999 -999 -999 -999
2007-05-08 07:50:23 51°14.564 2°51.986 -999 -999 -999 -999 -999
2007-05-08 07:50:28 51°14.564 2°51.987 -999 -999 -999 -999 -999
2007-05-08 07:50:33 51°14.564 2°51.989 -999 -999 -999 -999 -999
2007-05-08 07:50:38 51°14.564 2°51.99 -999 -999 -999 -999 -999
2007-05-08 07:50:43 51°14.563 2°51.992 -999 -999 -999 -999 -999
2007-05-08 07:50:48 51°14.563 2°51.993 -999 -999 -999 -999 -999
2007-05-08 07:50:53 51°14.563 2°51.995 -999 -999 -999 -999 -999
2007-05-08 07:50:58 51°14.562 2°51.997 -999 -999 -999 -999 -999
2007-05-08 07:51:03 51°14.561 2°51.999 -999 -999 -999 -999 -999
2007-05-08 07:51:08 51°14.56 2°52 -999 -999 -999 -999 -999
2007-05-08 07:51:13 51°14.559 2°52.002 -999 -999 -999 -999 -999
2007-05-08 07:51:18 51°14.557 2°52.004 -999 -999 -999 -999 -999
2007-05-08 07:51:23 51°14.555 2°52.005 -999 -999 -999 -999 -999
2007-05-08 07:51:28 51°14.552 2°52.007 -999 -999 -999 -999 -999
2007-05-08 07:51:33 51°14.549 2°52.009 -999 -999 -999 -999 -999
2007-05-08 07:51:38 51°14.545 2°52.01 -999 -999 -999 -999 -999
2007-05-08 07:51:43 51°14.541 2°52.012 -999 -999 -999 -999 -999
2007-05-08 07:51:48 51°14.537 2°52.014 -999 -999 -999 -999 -999
2007-05-08 07:51:53 51°14.531 2°52.013 -999 -999 -999 -999 -999
2007-05-08 07:51:58 51°14.526 2°52.014 -999 -999 -999 -999 -999
2007-05-08 07:52:03 51°14.52 2°52.012 -999 -999 -999 -999 -999
2007-05-08 07:52:08 51°14.514 2°52.01 -999 -999 -999 -999 -999
2007-05-08 07:52:13 51°14.507 2°52.007 -999 -999 -999 -999 -999
2007-05-08 07:52:18 51°14.501 2°52.003 -999 -999 -999 -999 -999
2007-05-08 07:52:23 51°14.494 2°51.999 -999 -999 -999 -999 -999
2007-05-08 07:52:28 51°14.488 2°51.993 -999 -999 -999 -999 -999
2007-05-08 07:52:33 51°14.482 2°51.986 -999 -999 -999 -999 -999
2007-05-08 07:52:38 51°14.477 2°51.979 -999 -999 -999 -999 -999
2007-05-08 07:52:43 51°14.471 2°51.972 -999 -999 -999 -999 -999
2007-05-08 07:52:48 51°14.467 2°51.964 -999 -999 -999 -999 -999
2007-05-08 07:52:53 51°14.463 2°51.956 -999 -999 -999 -999 -999
2007-05-08 07:52:58 51°14.459 2°51.949 -999 -999 -999 -999 -999
2007-05-08 07:53:03 51°14.456 2°51.941 -999 -999 -999 -999 -999
2007-05-08 07:53:08 51°14.454 2°51.934 -999 -999 -999 -999 -999
2007-05-08 07:53:13 51°14.452 2°51.927 -999 -999 -999 -999 -999
2007-05-08 07:53:18 51°14.45 2°51.92 -999 -999 -999 -999 -999
2007-05-08 07:53:23 51°14.448 2°51.914 -999 -999 -999 -999 -999
2007-05-08 07:53:28 51°14.446 2°51.908 -999 -999 -999 -999 -999
2007-05-08 07:53:33 51°14.445 2°51.902 -999 -999 -999 -999 -999
2007-05-08 07:53:38 51°14.444 2°51.896 -999 -999 -999 -999 -999
2007-05-08 07:53:43 51°14.443 2°51.891 -999 -999 -999 -999 -999
2007-05-08 07:53:48 51°14.442 2°51.886 -999 -999 -999 -999 -999
2007-05-08 07:53:53 51°14.441 2°51.88 -999 -999 -999 -999 -999
2007-05-08 07:53:58 51°14.441 2°51.875 -999 -999 -999 -999 -999
2007-05-08 07:54:03 51°14.44 2°51.87 -999 -999 -999 -999 -999
2007-05-08 07:54:08 51°14.44 2°51.865 -999 -999 -999 -999 -999
2007-05-08 07:54:13 51°14.44 2°51.861 -999 -999 -999 -999 -999
2007-05-08 07:54:18 51°14.439 2°51.857 -999 -999 -999 -999 -999
2007-05-08 07:54:23 51°14.439 2°51.853 -999 -999 -999 -999 -999
2007-05-08 07:54:28 51°14.439 2°51.849 -999 -999 -999 -999 -999
2007-05-08 07:54:33 51°14.439 2°51.845 -999 -999 -999 -999 -999
2007-05-08 07:54:38 51°14.439 2°51.841 -999 -999 -999 -999 -999
2007-05-08 07:54:43 51°14.439 2°51.837 -999 -999 -999 -999 -999
2007-05-08 07:54:48 51°14.439 2°51.834 -999 -999 -999 -999 -999
2007-05-08 07:54:53 51°14.44 2°51.83 -999 -999 -999 -999 -999
2007-05-08 07:54:58 51°14.44 2°51.827 -999 -999 -999 -999 -999
2007-05-08 07:55:03 51°14.44 2°51.823 -999 -999 -999 -999 -999
2007-05-08 07:55:08 51°14.44 2°51.821 -999 -999 -999 -999 -999
2007-05-08 07:55:13 51°14.44 2°51.819 -999 -999 -999 -999 -999
2007-05-08 07:55:18 51°14.44 2°51.816 -999 -999 -999 -999 -999
2007-05-08 07:55:23 51°14.44 2°51.813 -999 -999 -999 -999 -999
2007-05-08 07:55:28 51°14.439 2°51.809 -999 -999 -999 -999 -999
2007-05-08 07:55:33 51°14.439 2°51.805 -999 -999 -999 -999 -999
2007-05-08 07:55:38 51°14.439 2°51.8 -999 -999 -999 -999 -999
2007-05-08 07:55:43 51°14.438 2°51.794 -999 -999 -999 -999 -999
2007-05-08 07:55:48 51°14.438 2°51.788 -999 -999 -999 -999 -999
2007-05-08 07:55:53 51°14.437 2°51.781 -999 -999 -999 -999 -999
2007-05-08 07:55:58 51°14.436 2°51.773 -999 -999 -999 -999 -999
2007-05-08 07:56:03 51°14.435 2°51.766 -999 -999 -999 -999 -999
2007-05-08 07:56:08 51°14.435 2°51.759 -999 -999 -999 -999 -999
2007-05-08 07:56:13 51°14.434 2°51.753 -999 -999 -999 -999 -999
2007-05-08 07:56:18 51°14.434 2°51.747 -999 -999 -999 -999 -999
2007-05-08 07:56:23 51°14.433 2°51.741 -999 -999 -999 -999 -999
2007-05-08 07:56:28 51°14.433 2°51.735 -999 -999 -999 -999 -999
2007-05-08 07:56:33 51°14.433 2°51.729 -999 -999 -999 -999 -999
2007-05-08 07:56:38 51°14.432 2°51.723 -999 -999 -999 -999 -999
2007-05-08 07:56:43 51°14.432 2°51.716 -999 -999 -999 -999 -999
2007-05-08 07:56:48 51°14.432 2°51.709 -999 -999 -999 -999 -999
2007-05-08 07:56:53 51°14.433 2°51.702 -999 -999 -999 -999 -999
2007-05-08 07:56:58 51°14.433 2°51.695 -999 -999 -999 -999 -999
2007-05-08 07:57:03 51°14.434 2°51.687 -999 -999 -999 -999 -999
2007-05-08 07:57:08 51°14.435 2°51.679 -999 -999 -999 -999 -999
2007-05-08 07:57:13 51°14.436 2°51.671 -999 -999 -999 -999 -999
2007-05-08 07:57:18 51°14.437 2°51.662 -999 -999 -999 -999 -999
2007-05-08 07:57:23 51°14.438 2°51.654 -999 -999 -999 -999 -999
2007-05-08 07:57:28 51°14.439 2°51.646 -999 -999 -999 -999 -999
2007-05-08 07:57:33 51°14.439 2°51.638 -999 -999 -999 -999 -999
2007-05-08 07:57:38 51°14.44 2°51.63 -999 -999 -999 -999 -999
2007-05-08 07:57:43 51°14.44 2°51.623 -999 -999 -999 -999 -999
2007-05-08 07:57:48 51°14.44 2°51.616 -999 -999 -999 -999 -999
2007-05-08 07:57:53 51°14.44 2°51.61 -999 -999 -999 -999 -999
2007-05-08 07:57:58 51°14.441 2°51.603 -999 -999 -999 -999 -999
2007-05-08 07:58:03 51°14.44 2°51.597 -999 -999 -999 -999 -999
2007-05-08 07:58:08 51°14.44 2°51.591 -999 -999 -999 -999 -999
2007-05-08 07:58:13 51°14.439 2°51.585 -999 -999 -999 -999 -999
2007-05-08 07:58:18 51°14.439 2°51.579 -999 -999 -999 -999 -999
2007-05-08 07:58:23 51°14.438 2°51.573 -999 -999 -999 -999 -999
2007-05-08 07:58:28 51°14.437 2°51.566 -999 -999 -999 -999 -999
2007-05-08 07:58:33 51°14.436 2°51.558 -999 -999 -999 -999 -999
2007-05-08 07:58:38 51°14.434 2°51.551 -999 -999 -999 -999 -999
2007-05-08 07:58:43 51°14.432 2°51.543 -999 -999 -999 -999 -999
2007-05-08 07:58:48 51°14.43 2°51.536 -999 -999 -999 -999 -999
2007-05-08 07:58:53 51°14.428 2°51.529 -999 -999 -999 -999 -999
2007-05-08 07:58:58 51°14.426 2°51.522 -999 -999 -999 -999 -999
2007-05-08 07:59:03 51°14.423 2°51.515 -999 -999 -999 -999 -999
2007-05-08 07:59:08 51°14.42 2°51.508 -999 -999 -999 -999 -999
2007-05-08 07:59:13 51°14.417 2°51.501 -999 -999 -999 -999 -999
2007-05-08 07:59:18 51°14.415 2°51.495 -999 -999 -999 -999 -999
2007-05-08 07:59:23 51°14.413 2°51.487 -999 -999 -999 -999 -999
2007-05-08 07:59:28 51°14.411 2°51.48 -999 -999 -999 -999 -999
2007-05-08 07:59:33 51°14.409 2°51.473 -999 -999 -999 -999 -999
2007-05-08 07:59:38 51°14.407 2°51.466 -999 -999 -999 -999 -999
2007-05-08 07:59:43 51°14.406 2°51.459 -999 -999 -999 -999 -999
2007-05-08 07:59:48 51°14.405 2°51.451 -999 -999 -999 -999 -999
2007-05-08 07:59:53 51°14.404 2°51.443 -999 -999 -999 -999 -999
2007-05-08 07:59:58 51°14.403 2°51.435 -999 -999 -999 -999 -999
2007-05-08 08:00:03 51°14.402 2°51.427 -999 -999 -999 -999 -999
2007-05-08 08:00:08 51°14.402 2°51.419 -999 -999 -999 -999 -999
2007-05-08 08:00:13 51°14.401 2°51.411 -999 -999 -999 -999 -999
2007-05-08 08:00:18 51°14.401 2°51.403 -999 -999 -999 -999 -999
2007-05-08 08:00:23 51°14.401 2°51.395 -999 -999 -999 -999 -999
2007-05-08 08:00:28 51°14.401 2°51.387 -999 -999 -999 -999 -999
2007-05-08 08:00:33 51°14.4 2°51.379 -999 -999 -999 -999 -999
2007-05-08 08:00:38 51°14.4 2°51.371 -999 -999 -999 -999 -999
2007-05-08 08:00:43 51°14.399 2°51.362 -999 -999 -999 -999 -999
2007-05-08 08:00:48 51°14.399 2°51.354 -999 -999 -999 -999 -999
2007-05-08 08:00:53 51°14.397 2°51.345 -999 -999 -999 -999 -999
2007-05-08 08:00:58 51°14.396 2°51.337 -999 -999 -999 -999 -999
2007-05-08 08:01:03 51°14.395 2°51.33 -999 -999 -999 -999 -999
2007-05-08 08:01:08 51°14.394 2°51.321 -999 -999 -999 -999 -999
2007-05-08 08:01:13 51°14.392 2°51.314 -999 -999 -999 -999 -999
2007-05-08 08:01:18 51°14.391 2°51.306 -999 -999 -999 -999 -999
2007-05-08 08:01:23 51°14.388 2°51.299 -999 -999 -999 -999 -999
2007-05-08 08:01:28 51°14.386 2°51.292 -999 -999 -999 -999 -999
2007-05-08 08:01:33 51°14.383 2°51.285 -999 -999 -999 -999 -999
2007-05-08 08:01:38 51°14.38 2°51.278 -999 -999 -999 -999 -999
2007-05-08 08:01:43 51°14.378 2°51.27 -999 -999 -999 -999 -999
2007-05-08 08:01:48 51°14.375 2°51.263 -999 -999 -999 -999 -999
2007-05-08 08:01:53 51°14.372 2°51.257 -999 -999 -999 -999 -999
2007-05-08 08:01:58 51°14.37 2°51.25 -999 -999 -999 -999 -999
2007-05-08 08:02:03 51°14.368 2°51.243 -999 -999 -999 -999 -999
2007-05-08 08:02:08 51°14.365 2°51.236 -999 -999 -999 -999 -999
2007-05-08 08:02:13 51°14.363 2°51.229 -999 -999 -999 -999 -999
2007-05-08 08:02:18 51°14.361 2°51.221 -999 -999 -999 -999 -999
2007-05-08 08:02:23 51°14.359 2°51.213 -999 -999 -999 -999 -999
2007-05-08 08:02:28 51°14.357 2°51.206 -999 -999 -999 -999 -999
2007-05-08 08:02:33 51°14.356 2°51.198 -999 -999 -999 -999 -999
2007-05-08 08:02:38 51°14.355 2°51.19 -999 -999 -999 -999 -999
2007-05-08 08:02:43 51°14.353 2°51.181 -999 -999 -999 -999 -999
2007-05-08 08:02:48 51°14.352 2°51.173 -999 -999 -999 -999 -999
2007-05-08 08:02:53 51°14.352 2°51.164 -999 -999 -999 -999 -999
2007-05-08 08:02:58 51°14.352 2°51.155 -999 -999 -999 -999 -999
2007-05-08 08:03:03 51°14.351 2°51.147 -999 -999 -999 -999 -999
2007-05-08 08:03:08 51°14.351 2°51.138 -999 -999 -999 -999 -999
2007-05-08 08:03:13 51°14.351 2°51.13 -999 -999 -999 -999 -999
2007-05-08 08:03:18 51°14.351 2°51.121 -999 -999 -999 -999 -999
2007-05-08 08:03:23 51°14.351 2°51.113 -999 -999 -999 -999 -999
2007-05-08 08:03:28 51°14.351 2°51.105 -999 -999 -999 -999 -999
2007-05-08 08:03:33 51°14.351 2°51.096 -999 -999 -999 -999 -999
2007-05-08 08:03:38 51°14.351 2°51.088 -999 -999 -999 -999 -999
2007-05-08 08:03:43 51°14.351 2°51.081 -999 -999 -999 -999 -999
2007-05-08 08:03:48 51°14.351 2°51.073 -999 -999 -999 -999 -999
2007-05-08 08:03:53 51°14.35 2°51.066 -999 -999 -999 -999 -999
2007-05-08 08:03:58 51°14.35 2°51.059 -999 -999 -999 -999 -999
2007-05-08 08:04:03 51°14.349 2°51.053 -999 -999 -999 -999 -999
2007-05-08 08:04:08 51°14.348 2°51.047 -999 -999 -999 -999 -999
2007-05-08 08:04:13 51°14.348 2°51.041 -999 -999 -999 -999 -999
2007-05-08 08:04:18 51°14.346 2°51.035 -999 -999 -999 -999 -999
2007-05-08 08:04:23 51°14.345 2°51.029 -999 -999 -999 -999 -999
2007-05-08 08:04:28 51°14.344 2°51.023 -999 -999 -999 -999 -999
2007-05-08 08:04:33 51°14.343 2°51.017 -999 -999 -999 -999 -999
2007-05-08 08:04:38 51°14.341 2°51.01 -999 -999 -999 -999 -999
2007-05-08 08:04:43 51°14.339 2°51.004 -999 -999 -999 -999 -999
2007-05-08 08:04:48 51°14.337 2°50.997 -999 -999 -999 -999 -999
2007-05-08 08:04:53 51°14.335 2°50.991 -999 -999 -999 -999 -999
2007-05-08 08:04:58 51°14.333 2°50.985 -999 -999 -999 -999 -999
2007-05-08 08:05:03 51°14.331 2°50.979 -999 -999 -999 -999 -999
2007-05-08 08:05:08 51°14.328 2°50.972 -999 -999 -999 -999 -999
2007-05-08 08:05:13 51°14.325 2°50.965 -999 -999 -999 -999 -999
2007-05-08 08:05:18 51°14.323 2°50.958 -999 -999 -999 -999 -999
2007-05-08 08:05:23 51°14.32 2°50.952 -999 -999 -999 -999 -999
2007-05-08 08:05:28 51°14.318 2°50.945 -999 -999 -999 -999 -999
2007-05-08 08:05:33 51°14.316 2°50.937 -999 -999 -999 -999 -999
2007-05-08 08:05:38 51°14.313 2°50.93 -999 -999 -999 -999 -999
2007-05-08 08:05:43 51°14.311 2°50.922 -999 -999 -999 -999 -999
2007-05-08 08:05:48 51°14.309 2°50.915 -999 -999 -999 -999 -999
2007-05-08 08:05:53 51°14.307 2°50.908 -999 -999 -999 -999 -999
2007-05-08 08:05:58 51°14.304 2°50.901 -999 -999 -999 -999 -999
2007-05-08 08:06:03 51°14.302 2°50.893 -999 -999 -999 -999 -999
2007-05-08 08:06:08 51°14.301 2°50.886 -999 -999 -999 -999 -999
2007-05-08 08:06:13 51°14.299 2°50.879 -999 -999 -999 -999 -999
2007-05-08 08:06:18 51°14.298 2°50.871 -999 -999 -999 -999 -999
2007-05-08 08:06:23 51°14.296 2°50.863 -999 -999 -999 -999 -999
2007-05-08 08:06:28 51°14.295 2°50.855 -999 -999 -999 -999 -999
2007-05-08 08:06:33 51°14.294 2°50.847 -999 -999 -999 -999 -999
2007-05-08 08:06:38 51°14.293 2°50.839 -999 -999 -999 -999 -999
2007-05-08 08:06:43 51°14.292 2°50.831 -999 -999 -999 -999 -999
2007-05-08 08:06:48 51°14.292 2°50.823 -999 -999 -999 -999 -999
2007-05-08 08:06:53 51°14.291 2°50.816 -999 -999 -999 -999 -999
2007-05-08 08:06:58 51°14.291 2°50.808 -999 -999 -999 -999 -999
2007-05-08 08:07:03 51°14.29 2°50.8 -999 -999 -999 -999 -999
2007-05-08 08:07:08 51°14.29 2°50.791 -999 -999 -999 -999 -999
2007-05-08 08:07:13 51°14.289 2°50.783 -999 -999 -999 -999 -999
2007-05-08 08:07:18 51°14.288 2°50.775 -999 -999 -999 -999 -999
2007-05-08 08:07:23 51°14.287 2°50.766 -999 -999 -999 -999 -999
2007-05-08 08:07:28 51°14.286 2°50.758 -999 -999 -999 -999 -999
2007-05-08 08:07:33 51°14.285 2°50.75 -999 -999 -999 -999 -999
2007-05-08 08:07:38 51°14.284 2°50.742 -999 -999 -999 -999 -999
2007-05-08 08:07:43 51°14.283 2°50.735 -999 -999 -999 -999 -999
2007-05-08 08:07:48 51°14.281 2°50.727 -999 -999 -999 -999 -999
2007-05-08 08:07:53 51°14.28 2°50.721 -999 -999 -999 -999 -999
2007-05-08 08:07:58 51°14.278 2°50.714 -999 -999 -999 -999 -999
2007-05-08 08:08:03 51°14.276 2°50.707 -999 -999 -999 -999 -999
2007-05-08 08:08:08 51°14.274 2°50.701 -999 -999 -999 -999 -999
2007-05-08 08:08:13 51°14.272 2°50.695 -999 -999 -999 -999 -999
2007-05-08 08:08:18 51°14.269 2°50.689 -999 -999 -999 -999 -999
2007-05-08 08:08:23 51°14.267 2°50.683 -999 -999 -999 -999 -999
2007-05-08 08:08:28 51°14.264 2°50.678 -999 -999 -999 -999 -999
2007-05-08 08:08:33 51°14.261 2°50.672 -999 -999 -999 -999 -999
2007-05-08 08:08:38 51°14.259 2°50.666 -999 -999 -999 -999 -999
2007-05-08 08:08:43 51°14.256 2°50.661 -999 -999 -999 -999 -999
2007-05-08 08:08:48 51°14.253 2°50.655 -999 -999 -999 -999 -999
2007-05-08 08:08:53 51°14.25 2°50.649 -999 -999 -999 -999 -999
2007-05-08 08:08:58 51°14.248 2°50.644 -999 -999 -999 -999 -999
2007-05-08 08:09:03 51°14.245 2°50.638 -999 -999 -999 -999 -999
2007-05-08 08:09:08 51°14.242 2°50.633 -999 -999 -999 -999 -999
2007-05-08 08:09:13 51°14.24 2°50.628 -999 -999 -999 -999 -999
2007-05-08 08:09:18 51°14.237 2°50.623 -999 -999 -999 -999 -999
2007-05-08 08:09:23 51°14.235 2°50.617 -999 -999 -999 -999 -999
2007-05-08 08:09:28 51°14.232 2°50.612 -999 -999 -999 -999 -999
2007-05-08 08:09:33 51°14.23 2°50.607 -999 -999 -999 -999 -999
2007-05-08 08:09:38 51°14.227 2°50.602 -999 -999 -999 -999 -999
2007-05-08 08:09:43 51°14.225 2°50.597 -999 -999 -999 -999 -999
2007-05-08 08:09:48 51°14.223 2°50.592 -999 -999 -999 -999 -999
2007-05-08 08:09:53 51°14.221 2°50.586 -999 -999 -999 -999 -999
2007-05-08 08:09:58 51°14.218 2°50.58 -999 -999 -999 -999 -999
2007-05-08 08:10:03 51°14.216 2°50.575 -999 -999 -999 -999 -999
2007-05-08 08:10:08 51°14.214 2°50.569 -999 -999 -999 -999 -999
2007-05-08 08:10:13 51°14.212 2°50.563 -999 -999 -999 -999 -999
2007-05-08 08:10:18 51°14.209 2°50.557 -999 -999 -999 -999 -999
2007-05-08 08:10:23 51°14.207 2°50.551 -999 -999 -999 -999 -999
2007-05-08 08:10:28 51°14.205 2°50.545 -999 -999 -999 -999 -999
2007-05-08 08:10:33 51°14.202 2°50.538 -999 -999 -999 -999 -999
2007-05-08 08:10:38 51°14.2 2°50.532 -999 -999 -999 -999 -999
2007-05-08 08:10:43 51°14.198 2°50.526 -999 -999 -999 -999 -999
2007-05-08 08:10:48 51°14.196 2°50.519 -999 -999 -999 -999 -999
2007-05-08 08:10:53 51°14.195 2°50.513 -999 -999 -999 -999 -999
2007-05-08 08:10:58 51°14.193 2°50.506 -999 -999 -999 -999 -999
2007-05-08 08:11:03 51°14.191 2°50.5 -999 -999 -999 -999 -999
2007-05-08 08:11:08 51°14.189 2°50.493 -999 -999 -999 -999 -999
2007-05-08 08:11:13 51°14.187 2°50.486 -999 -999 -999 -999 -999
2007-05-08 08:11:18 51°14.185 2°50.479 -999 -999 -999 -999 -999
2007-05-08 08:11:23 51°14.183 2°50.473 -999 -999 -999 -999 -999
2007-05-08 08:11:28 51°14.182 2°50.467 -999 -999 -999 -999 -999
2007-05-08 08:11:33 51°14.18 2°50.461 -999 -999 -999 -999 -999
2007-05-08 08:11:38 51°14.178 2°50.454 -999 -999 -999 -999 -999
2007-05-08 08:11:43 51°14.176 2°50.448 -999 -999 -999 -999 -999
2007-05-08 08:11:48 51°14.175 2°50.441 -999 -999 -999 -999 -999
2007-05-08 08:11:53 51°14.172 2°50.434 -999 -999 -999 -999 -999
2007-05-08 08:11:58 51°14.171 2°50.428 -999 -999 -999 -999 -999
2007-05-08 08:12:03 51°14.169 2°50.421 -999 -999 -999 -999 -999
2007-05-08 08:12:08 51°14.166 2°50.414 -999 -999 -999 -999 -999
2007-05-08 08:12:13 51°14.165 2°50.407 -999 -999 -999 -999 -999
2007-05-08 08:12:18 51°14.162 2°50.401 -999 -999 -999 -999 -999
2007-05-08 08:12:23 51°14.16 2°50.394 -999 -999 -999 -999 -999
2007-05-08 08:12:28 51°14.158 2°50.387 -999 -999 -999 -999 -999
2007-05-08 08:12:33 51°14.156 2°50.38 -999 -999 -999 -999 -999
2007-05-08 08:12:38 51°14.154 2°50.373 -999 -999 -999 -999 -999
2007-05-08 08:12:43 51°14.152 2°50.366 -999 -999 -999 -999 -999
2007-05-08 08:12:48 51°14.149 2°50.36 -999 -999 -999 -999 -999
2007-05-08 08:12:53 51°14.147 2°50.352 -999 -999 -999 -999 -999
2007-05-08 08:12:58 51°14.145 2°50.346 -999 -999 -999 -999 -999
2007-05-08 08:13:03 51°14.142 2°50.339 -999 -999 -999 -999 -999
2007-05-08 08:13:08 51°14.139 2°50.332 -999 -999 -999 -999 -999
2007-05-08 08:13:13 51°14.137 2°50.326 -999 -999 -999 -999 -999
2007-05-08 08:13:18 51°14.134 2°50.319 -999 -999 -999 -999 -999
2007-05-08 08:13:23 51°14.131 2°50.313 -999 -999 -999 -999 -999
2007-05-08 08:13:28 51°14.128 2°50.307 -999 -999 -999 -999 -999
2007-05-08 08:13:33 51°14.125 2°50.301 -999 -999 -999 -999 -999
2007-05-08 08:13:38 51°14.122 2°50.295 -999 -999 -999 -999 -999
2007-05-08 08:13:43 51°14.12 2°50.289 -999 -999 -999 -999 -999
2007-05-08 08:13:48 51°14.117 2°50.284 -999 -999 -999 -999 -999
2007-05-08 08:13:53 51°14.114 2°50.278 -999 -999 -999 -999 -999
2007-05-08 08:13:58 51°14.111 2°50.272 -999 -999 -999 -999 -999
2007-05-08 08:14:03 51°14.108 2°50.266 -999 -999 -999 -999 -999
2007-05-08 08:14:08 51°14.105 2°50.261 -999 -999 -999 -999 -999
2007-05-08 08:14:13 51°14.103 2°50.256 -999 -999 -999 -999 -999
2007-05-08 08:14:18 51°14.1 2°50.252 -999 -999 -999 -999 -999
2007-05-08 08:14:23 51°14.097 2°50.247 -999 -999 -999 -999 -999
2007-05-08 08:14:28 51°14.094 2°50.242 -999 -999 -999 -999 -999
2007-05-08 08:14:33 51°14.092 2°50.237 -999 -999 -999 -999 -999
2007-05-08 08:14:38 51°14.089 2°50.231 -999 -999 -999 -999 -999
2007-05-08 08:14:43 51°14.087 2°50.225 -999 -999 -999 -999 -999
2007-05-08 08:14:48 51°14.084 2°50.219 -999 -999 -999 -999 -999
2007-05-08 08:14:53 51°14.081 2°50.213 -999 -999 -999 -999 -999
2007-05-08 08:14:58 51°14.079 2°50.206 -999 -999 -999 -999 -999
2007-05-08 08:15:03 51°14.076 2°50.2 -999 -999 -999 -999 -999
2007-05-08 08:15:08 51°14.073 2°50.194 -999 -999 -999 -999 -999
2007-05-08 08:15:13 51°14.071 2°50.188 -999 -999 -999 -999 -999
2007-05-08 08:15:18 51°14.068 2°50.182 -999 -999 -999 -999 -999
2007-05-08 08:15:23 51°14.066 2°50.175 -999 -999 -999 -999 -999
2007-05-08 08:15:28 51°14.063 2°50.169 -999 -999 -999 -999 -999
2007-05-08 08:15:33 51°14.061 2°50.162 -999 -999 -999 -999 -999
2007-05-08 08:15:38 51°14.058 2°50.155 -999 -999 -999 -999 -999
2007-05-08 08:15:43 51°14.056 2°50.148 -999 -999 -999 -999 -999
2007-05-08 08:15:48 51°14.054 2°50.14 -999 -999 -999 -999 -999
2007-05-08 08:15:53 51°14.052 2°50.133 -999 -999 -999 -999 -999
2007-05-08 08:15:58 51°14.049 2°50.125 -999 -999 -999 -999 -999
2007-05-08 08:16:03 51°14.047 2°50.118 -999 -999 -999 -999 -999
2007-05-08 08:16:08 51°14.045 2°50.11 -999 -999 -999 -999 -999
2007-05-08 08:16:13 51°14.043 2°50.102 -999 -999 -999 -999 -999
2007-05-08 08:16:18 51°14.041 2°50.095 -999 -999 -999 -999 -999
2007-05-08 08:16:23 51°14.039 2°50.087 -999 -999 -999 -999 -999
2007-05-08 08:16:28 51°14.037 2°50.079 -999 -999 -999 -999 -999
2007-05-08 08:16:33 51°14.034 2°50.071 -999 -999 -999 -999 -999
2007-05-08 08:16:38 51°14.032 2°50.064 -999 -999 -999 -999 -999
2007-05-08 08:16:43 51°14.031 2°50.056 -999 -999 -999 -999 -999
2007-05-08 08:16:48 51°14.028 2°50.048 -999 -999 -999 -999 -999
2007-05-08 08:16:53 51°14.027 2°50.04 -999 -999 -999 -999 -999
2007-05-08 08:16:58 51°14.024 2°50.032 -999 -999 -999 -999 -999
2007-05-08 08:17:03 51°14.022 2°50.024 -999 -999 -999 -999 -999
2007-05-08 08:17:08 51°14.02 2°50.016 -999 -999 -999 -999 -999
2007-05-08 08:17:13 51°14.018 2°50.008 -999 -999 -999 -999 -999
2007-05-08 08:17:18 51°14.015 2°50 -999 -999 -999 -999 -999
2007-05-08 08:17:23 51°14.013 2°49.992 -999 -999 -999 -999 -999
2007-05-08 08:17:28 51°14.011 2°49.984 -999 -999 -999 -999 -999
2007-05-08 08:17:33 51°14.008 2°49.976 -999 -999 -999 -999 -999
2007-05-08 08:17:38 51°14.006 2°49.968 -999 -999 -999 -999 -999
2007-05-08 08:17:43 51°14.004 2°49.96 -999 -999 -999 -999 -999
2007-05-08 08:17:48 51°14.002 2°49.953 -999 -999 -999 -999 -999
2007-05-08 08:17:53 51°14 2°49.945 -999 -999 -999 -999 -999
2007-05-08 08:17:58 51°13.998 2°49.937 -999 -999 -999 -999 -999
2007-05-08 08:18:03 51°13.995 2°49.93 -999 -999 -999 -999 -999
2007-05-08 08:18:08 51°13.993 2°49.924 -999 -999 -999 -999 -999
2007-05-08 08:18:13 51°13.99 2°49.917 -999 -999 -999 -999 -999
2007-05-08 08:18:18 51°13.988 2°49.911 -999 -999 -999 -999 -999
2007-05-08 08:18:23 51°13.986 2°49.905 -999 -999 -999 -999 -999
2007-05-08 08:18:28 51°13.983 2°49.898 -999 -999 -999 -999 -999
2007-05-08 08:18:33 51°13.981 2°49.892 -999 -999 -999 -999 -999
2007-05-08 08:18:38 51°13.979 2°49.886 -999 -999 -999 -999 -999
2007-05-08 08:18:43 51°13.977 2°49.88 -999 -999 -999 -999 -999
2007-05-08 08:18:48 51°13.974 2°49.874 -999 -999 -999 -999 -999
2007-05-08 08:18:53 51°13.972 2°49.869 -999 -999 -999 -999 -999
2007-05-08 08:18:58 51°13.97 2°49.863 -999 -999 -999 -999 -999
2007-05-08 08:19:03 51°13.967 2°49.857 -999 -999 -999 -999 -999
2007-05-08 08:19:08 51°13.965 2°49.852 -999 -999 -999 -999 -999
2007-05-08 08:19:13 51°13.962 2°49.846 -999 -999 -999 -999 -999
2007-05-08 08:19:18 51°13.96 2°49.841 -999 -999 -999 -999 -999
2007-05-08 08:19:23 51°13.957 2°49.835 -999 -999 -999 -999 -999
2007-05-08 08:19:28 51°13.955 2°49.83 -999 -999 -999 -999 -999
2007-05-08 08:19:33 51°13.952 2°49.824 -999 -999 -999 -999 -999
2007-05-08 08:19:38 51°13.95 2°49.819 -999 -999 -999 -999 -999
2007-05-08 08:19:43 51°13.947 2°49.814 -999 -999 -999 -999 -999
2007-05-08 08:19:48 51°13.944 2°49.808 -999 -999 -999 -999 -999
2007-05-08 08:19:53 51°13.941 2°49.802 -999 -999 -999 -999 -999
2007-05-08 08:19:58 51°13.938 2°49.797 -999 -999 -999 -999 -999
2007-05-08 08:20:03 51°13.936 2°49.791 -999 -999 -999 -999 -999
2007-05-08 08:20:08 51°13.933 2°49.785 -999 -999 -999 -999 -999
2007-05-08 08:20:13 51°13.93 2°49.779 -999 -999 -999 -999 -999
2007-05-08 08:20:18 51°13.927 2°49.774 -999 -999 -999 -999 -999
2007-05-08 08:20:23 51°13.925 2°49.769 -999 -999 -999 -999 -999
2007-05-08 08:20:28 51°13.922 2°49.764 -999 -999 -999 -999 -999
2007-05-08 08:20:33 51°13.919 2°49.759 -999 -999 -999 -999 -999
2007-05-08 08:20:38 51°13.916 2°49.754 -999 -999 -999 -999 -999
2007-05-08 08:20:43 51°13.914 2°49.749 -999 -999 -999 -999 -999
2007-05-08 08:20:48 51°13.911 2°49.744 -999 -999 -999 -999 -999
2007-05-08 08:20:53 51°13.908 2°49.739 -999 -999 -999 -999 -999
2007-05-08 08:20:58 51°13.906 2°49.733 -999 -999 -999 -999 -999
2007-05-08 08:21:03 51°13.903 2°49.728 -999 -999 -999 -999 -999
2007-05-08 08:21:08 51°13.901 2°49.722 -999 -999 -999 -999 -999
2007-05-08 08:21:13 51°13.899 2°49.716 -999 -999 -999 -999 -999
2007-05-08 08:21:18 51°13.896 2°49.71 -999 -999 -999 -999 -999
2007-05-08 08:21:23 51°13.894 2°49.704 -999 -999 -999 -999 -999
2007-05-08 08:21:28 51°13.892 2°49.698 -999 -999 -999 -999 -999
2007-05-08 08:21:33 51°13.889 2°49.691 -999 -999 -999 -999 -999
2007-05-08 08:21:38 51°13.887 2°49.685 -999 -999 -999 -999 -999
2007-05-08 08:21:43 51°13.885 2°49.679 -999 -999 -999 -999 -999
2007-05-08 08:21:48 51°13.883 2°49.672 -999 -999 -999 -999 -999
2007-05-08 08:21:53 51°13.881 2°49.666 -999 -999 -999 -999 -999
2007-05-08 08:21:58 51°13.878 2°49.659 -999 -999 -999 -999 -999
2007-05-08 08:22:03 51°13.876 2°49.652 -999 -999 -999 -999 -999
2007-05-08 08:22:08 51°13.874 2°49.645 -999 -999 -999 -999 -999
2007-05-08 08:22:13 51°13.872 2°49.638 -999 -999 -999 -999 -999
2007-05-08 08:22:18 51°13.871 2°49.632 -999 -999 -999 -999 -999
2007-05-08 08:22:23 51°13.869 2°49.625 -999 -999 -999 -999 -999
2007-05-08 08:22:28 51°13.867 2°49.618 -999 -999 -999 -999 -999
2007-05-08 08:22:33 51°13.865 2°49.611 -999 -999 -999 -999 -999
2007-05-08 08:22:38 51°13.863 2°49.604 -999 -999 -999 -999 -999
2007-05-08 08:22:43 51°13.861 2°49.596 -999 -999 -999 -999 -999
2007-05-08 08:22:48 51°13.86 2°49.589 -999 -999 -999 -999 -999
2007-05-08 08:22:53 51°13.858 2°49.582 -999 -999 -999 -999 -999
2007-05-08 08:22:58 51°13.856 2°49.575 -999 -999 -999 -999 -999
2007-05-08 08:23:03 51°13.855 2°49.567 -999 -999 -999 -999 -999
2007-05-08 08:23:08 51°13.853 2°49.56 -999 -999 -999 -999 -999
2007-05-08 08:23:13 51°13.852 2°49.552 -999 -999 -999 -999 -999
2007-05-08 08:23:18 51°13.851 2°49.544 -999 -999 -999 -999 -999
2007-05-08 08:23:23 51°13.85 2°49.536 -999 -999 -999 -999 -999
2007-05-08 08:23:28 51°13.848 2°49.529 -999 -999 -999 -999 -999
2007-05-08 08:23:33 51°13.848 2°49.521 -999 -999 -999 -999 -999
2007-05-08 08:23:38 51°13.846 2°49.513 -999 -999 -999 -999 -999
2007-05-08 08:23:43 51°13.846 2°49.505 -999 -999 -999 -999 -999
2007-05-08 08:23:48 51°13.845 2°49.497 -999 -999 -999 -999 -999
2007-05-08 08:23:53 51°13.844 2°49.49 -999 -999 -999 -999 -999
2007-05-08 08:23:58 51°13.843 2°49.482 -999 -999 -999 -999 -999
2007-05-08 08:24:03 51°13.843 2°49.475 -999 -999 -999 -999 -999
2007-05-08 08:24:08 51°13.842 2°49.467 -999 -999 -999 -999 -999
2007-05-08 08:24:13 51°13.842 2°49.459 -999 -999 -999 -999 -999
2007-05-08 08:24:18 51°13.842 2°49.451 -999 -999 -999 -999 -999
2007-05-08 08:24:23 51°13.841 2°49.444 -999 -999 -999 -999 -999
2007-05-08 08:24:28 51°13.841 2°49.436 -999 -999 -999 -999 -999
2007-05-08 08:24:33 51°13.841 2°49.429 -999 -999 -999 -999 -999
2007-05-08 08:24:38 51°13.84 2°49.421 -999 -999 -999 -999 -999
2007-05-08 08:24:43 51°13.84 2°49.413 -999 -999 -999 -999 -999
2007-05-08 08:24:48 51°13.839 2°49.406 -999 -999 -999 -999 -999
2007-05-08 08:24:53 51°13.839 2°49.398 -999 -999 -999 -999 -999
2007-05-08 08:24:58 51°13.839 2°49.39 -999 -999 -999 -999 -999
2007-05-08 08:25:03 51°13.838 2°49.382 -999 -999 -999 -999 -999
2007-05-08 08:25:07 51°13.838 2°49.376 -999 -999 -999 -999 -999
2007-05-08 08:25:13 51°13.837 2°49.367 -999 -999 -999 -999 -999
2007-05-08 08:25:18 51°13.837 2°49.359 -999 -999 -999 -999 -999
2007-05-08 08:25:23 51°13.836 2°49.352 -999 -999 -999 -999 -999
2007-05-08 08:25:28 51°13.836 2°49.344 -999 -999 -999 -999 -999
2007-05-08 08:25:33 51°13.835 2°49.337 -999 -999 -999 -999 -999
2007-05-08 08:25:38 51°13.835 2°49.33 -999 -999 -999 -999 -999
2007-05-08 08:25:43 51°13.834 2°49.323 -999 -999 -999 -999 -999
2007-05-08 08:25:48 51°13.833 2°49.315 -999 -999 -999 -999 -999
2007-05-08 08:25:52 51°13.833 2°49.31 -999 -999 -999 -999 -999
2007-05-08 08:25:58 51°13.832 2°49.301 -999 -999 -999 -999 -999
2007-05-08 08:26:03 51°13.83 2°49.294 -999 -999 -999 -999 -999
2007-05-08 08:26:08 51°13.829 2°49.287 -999 -999 -999 -999 -999
2007-05-08 08:26:13 51°13.828 2°49.28 -999 -999 -999 -999 -999
2007-05-08 08:26:18 51°13.827 2°49.273 -999 -999 -999 -999 -999
2007-05-08 08:26:23 51°13.825 2°49.266 -999 -999 -999 -999 -999
2007-05-08 08:26:28 51°13.824 2°49.259 -999 -999 -999 -999 -999
2007-05-08 08:26:33 51°13.822 2°49.252 -999 -999 -999 -999 -999
2007-05-08 08:26:38 51°13.82 2°49.245 -999 -999 -999 -999 -999
2007-05-08 08:26:43 51°13.819 2°49.238 -999 -999 -999 -999 -999
2007-05-08 08:26:48 51°13.817 2°49.232 -999 -999 -999 -999 -999
2007-05-08 08:26:53 51°13.815 2°49.226 -999 -999 -999 -999 -999
2007-05-08 08:26:58 51°13.813 2°49.221 -999 -999 -999 -999 -999
2007-05-08 08:27:03 51°13.812 2°49.214 -999 -999 -999 -999 -999
2007-05-08 08:27:08 51°13.809 2°49.209 -999 -999 -999 -999 -999
2007-05-08 08:27:13 51°13.808 2°49.203 -999 -999 -999 -999 -999
2007-05-08 08:27:18 51°13.805 2°49.198 -999 -999 -999 -999 -999
2007-05-08 08:27:23 51°13.804 2°49.192 -999 -999 -999 -999 -999
2007-05-08 08:27:28 51°13.801 2°49.186 -999 -999 -999 -999 -999
2007-05-08 08:27:33 51°13.8 2°49.18 -999 -999 -999 -999 -999
2007-05-08 08:27:38 51°13.798 2°49.174 -999 -999 -999 -999 -999
2007-05-08 08:27:43 51°13.796 2°49.168 -999 -999 -999 -999 -999
2007-05-08 08:27:48 51°13.794 2°49.161 -999 -999 -999 -999 -999
2007-05-08 08:27:53 51°13.791 2°49.155 -999 -999 -999 -999 -999
2007-05-08 08:27:58 51°13.79 2°49.148 -999 -999 -999 -999 -999
2007-05-08 08:28:03 51°13.788 2°49.143 -999 -999 -999 -999 -999
2007-05-08 08:28:08 51°13.786 2°49.136 -999 -999 -999 -999 -999
2007-05-08 08:28:13 51°13.784 2°49.13 -999 -999 -999 -999 -999
2007-05-08 08:28:18 51°13.782 2°49.124 -999 -999 -999 -999 -999
2007-05-08 08:28:23 51°13.78 2°49.118 -999 -999 -999 -999 -999
2007-05-08 08:28:28 51°13.778 2°49.112 -999 -999 -999 -999 -999
2007-05-08 08:28:33 51°13.776 2°49.105 -999 -999 -999 -999 -999
2007-05-08 08:28:38 51°13.775 2°49.099 -999 -999 -999 -999 -999
2007-05-08 08:28:43 51°13.773 2°49.093 -999 -999 -999 -999 -999
2007-05-08 08:28:48 51°13.771 2°49.087 -999 -999 -999 -999 -999
2007-05-08 08:28:53 51°13.769 2°49.081 -999 -999 -999 -999 -999
2007-05-08 08:28:58 51°13.767 2°49.075 -999 -999 -999 -999 -999
2007-05-08 08:29:03 51°13.766 2°49.068 -999 -999 -999 -999 -999
2007-05-08 08:29:08 51°13.764 2°49.062 -999 -999 -999 -999 -999
2007-05-08 08:29:13 51°13.762 2°49.056 -999 -999 -999 -999 -999
2007-05-08 08:29:18 51°13.761 2°49.049 -999 -999 -999 -999 -999
2007-05-08 08:29:23 51°13.759 2°49.042 -999 -999 -999 -999 -999
2007-05-08 08:29:28 51°13.757 2°49.035 -999 -999 -999 -999 -999
2007-05-08 08:29:33 51°13.756 2°49.028 -999 -999 -999 -999 -999
2007-05-08 08:29:38 51°13.754 2°49.021 -999 -999 -999 -999 -999
2007-05-08 08:29:43 51°13.753 2°49.014 -999 -999 -999 -999 -999
2007-05-08 08:29:48 51°13.751 2°49.007 -999 -999 -999 -999 -999
2007-05-08 08:29:53 51°13.75 2°49 -999 -999 -999 -999 -999
2007-05-08 08:29:58 51°13.749 2°48.993 -999 -999 -999 -999 -999
2007-05-08 08:30:03 51°13.747 2°48.986 -999 -999 -999 -999 -999
2007-05-08 08:30:08 51°13.746 2°48.979 -999 -999 -999 -999 -999
2007-05-08 08:30:13 51°13.745 2°48.972 -999 -999 -999 -999 -999
2007-05-08 08:30:18 51°13.744 2°48.965 -999 -999 -999 -999 -999
2007-05-08 08:30:23 51°13.743 2°48.959 -999 -999 -999 -999 -999
2007-05-08 08:30:28 51°13.742 2°48.952 -999 -999 -999 -999 -999
2007-05-08 08:30:33 51°13.741 2°48.945 -999 -999 -999 -999 -999
2007-05-08 08:30:38 51°13.74 2°48.938 -999 -999 -999 -999 -999
2007-05-08 08:30:43 51°13.739 2°48.931 -999 -999 -999 -999 -999
2007-05-08 08:30:48 51°13.739 2°48.924 -999 -999 -999 -999 -999
2007-05-08 08:30:53 51°13.738 2°48.917 -999 -999 -999 -999 -999
2007-05-08 08:30:58 51°13.737 2°48.911 -999 -999 -999 -999 -999
2007-05-08 08:31:03 51°13.737 2°48.904 -999 -999 -999 -999 -999
2007-05-08 08:31:08 51°13.737 2°48.898 -999 -999 -999 -999 -999
2007-05-08 08:31:13 51°13.737 2°48.891 -999 -999 -999 -999 -999
2007-05-08 08:31:18 51°13.736 2°48.885 -999 -999 -999 -999 -999
2007-05-08 08:31:23 51°13.737 2°48.879 -999 -999 -999 -999 -999
2007-05-08 08:31:28 51°13.737 2°48.873 -999 -999 -999 -999 -999
2007-05-08 08:31:33 51°13.737 2°48.867 -999 -999 -999 -999 -999
2007-05-08 08:31:38 51°13.738 2°48.86 -999 -999 -999 -999 -999
2007-05-08 08:31:43 51°13.739 2°48.853 -999 -999 -999 -999 -999
2007-05-08 08:31:48 51°13.74 2°48.846 -999 -999 -999 -999 -999
2007-05-08 08:31:53 51°13.742 2°48.84 -999 -999 -999 -999 -999
2007-05-08 08:31:58 51°13.744 2°48.833 -999 -999 -999 -999 -999
2007-05-08 08:32:03 51°13.746 2°48.826 -999 -999 -999 -999 -999
2007-05-08 08:32:08 51°13.748 2°48.819 -999 -999 -999 -999 -999
2007-05-08 08:32:13 51°13.75 2°48.812 -999 -999 -999 -999 -999
2007-05-08 08:32:18 51°13.753 2°48.806 -999 -999 -999 -999 -999
2007-05-08 08:32:23 51°13.757 2°48.8 -999 -999 -999 -999 -999
2007-05-08 08:32:28 51°13.761 2°48.795 -999 -999 -999 -999 -999
2007-05-08 08:32:33 51°13.764 2°48.791 -999 -999 -999 -999 -999
2007-05-08 08:32:38 51°13.769 2°48.786 -999 -999 -999 -999 -999
2007-05-08 08:32:43 51°13.773 2°48.783 -999 -999 -999 -999 -999
2007-05-08 08:32:48 51°13.777 2°48.781 -999 -999 -999 -999 -999
2007-05-08 08:32:53 51°13.782 2°48.779 -999 -999 -999 -999 -999
2007-05-08 08:32:58 51°13.787 2°48.779 -999 -999 -999 -999 -999
2007-05-08 08:33:03 51°13.792 2°48.779 -999 -999 -999 -999 -999
2007-05-08 08:33:08 51°13.797 2°48.779 -999 -999 -999 -999 -999
2007-05-08 08:33:13 51°13.802 2°48.78 -999 -999 -999 -999 -999
2007-05-08 08:33:18 51°13.806 2°48.78 -999 -999 -999 -999 -999
2007-05-08 08:33:23 51°13.811 2°48.782 -999 -999 -999 -999 -999
2007-05-08 08:33:28 51°13.816 2°48.785 -999 -999 -999 -999 -999
2007-05-08 08:33:33 51°13.82 2°48.789 -999 -999 -999 -999 -999
2007-05-08 08:33:38 51°13.824 2°48.793 -999 -999 -999 -999 -999
2007-05-08 08:33:43 51°13.828 2°48.798 -999 -999 -999 -999 -999
2007-05-08 08:33:48 51°13.832 2°48.803 -999 -999 -999 -999 -999
2007-05-08 08:33:53 51°13.835 2°48.809 -999 -999 -999 -999 -999
2007-05-08 08:33:58 51°13.838 2°48.815 -999 -999 -999 -999 -999
2007-05-08 08:34:03 51°13.841 2°48.821 -999 -999 -999 -999 -999
2007-05-08 08:34:08 51°13.844 2°48.828 -999 -999 -999 -999 -999
2007-05-08 08:34:13 51°13.845 2°48.836 -999 -999 -999 -999 -999
2007-05-08 08:34:18 51°13.846 2°48.843 -999 -999 -999 -999 -999
2007-05-08 08:34:23 51°13.847 2°48.851 -999 -999 -999 -999 -999
2007-05-08 08:34:28 51°13.847 2°48.859 -999 -999 -999 -999 -999
2007-05-08 08:34:33 51°13.847 2°48.867 -999 -999 -999 -999 -999
2007-05-08 08:34:38 51°13.845 2°48.875 -999 -999 -999 -999 -999
2007-05-08 08:34:43 51°13.844 2°48.882 -999 -999 -999 -999 -999
2007-05-08 08:34:48 51°13.842 2°48.889 -999 -999 -999 -999 -999
2007-05-08 08:34:53 51°13.84 2°48.896 -999 -999 -999 -999 -999
2007-05-08 08:34:58 51°13.837 2°48.903 -999 -999 -999 -999 -999
2007-05-08 08:35:03 51°13.834 2°48.908 -999 -999 -999 -999 -999
2007-05-08 08:35:08 51°13.83 2°48.913 -999 -999 -999 -999 -999
2007-05-08 08:35:13 51°13.827 2°48.918 -999 -999 -999 -999 -999
2007-05-08 08:35:18 51°13.823 2°48.923 -999 -999 -999 -999 -999
2007-05-08 08:35:23 51°13.819 2°48.926 -999 -999 -999 -999 -999
2007-05-08 08:35:28 51°13.815 2°48.929 -999 -999 -999 -999 -999
2007-05-08 08:35:33 51°13.811 2°48.931 -999 -999 -999 -999 -999
2007-05-08 08:35:38 51°13.807 2°48.933 -999 -999 -999 -999 -999
2007-05-08 08:35:43 51°13.802 2°48.936 -999 -999 -999 -999 -999
2007-05-08 08:35:48 51°13.798 2°48.936 -999 -999 -999 -999 -999
2007-05-08 08:35:53 51°13.794 2°48.937 -999 -999 -999 -999 -999
2007-05-08 08:35:58 51°13.789 2°48.938 -999 -999 -999 -999 -999
2007-05-08 08:36:03 51°13.785 2°48.938 -999 -999 -999 -999 -999
2007-05-08 08:36:08 51°13.781 2°48.936 -999 -999 -999 -999 -999
2007-05-08 08:36:13 51°13.776 2°48.936 -999 -999 -999 -999 -999
2007-05-08 08:36:18 51°13.772 2°48.934 -999 -999 -999 -999 -999
2007-05-08 08:36:23 51°13.768 2°48.933 -999 -999 -999 -999 -999
2007-05-08 08:36:28 51°13.764 2°48.93 -999 -999 -999 -999 -999
2007-05-08 08:36:33 51°13.76 2°48.929 -999 -999 -999 -999 -999
2007-05-08 08:36:38 51°13.756 2°48.925 -999 -999 -999 -999 -999
2007-05-08 08:36:43 51°13.752 2°48.922 -999 -999 -999 -999 -999
2007-05-08 08:36:48 51°13.748 2°48.918 -999 -999 -999 -999 -999
2007-05-08 08:36:53 51°13.745 2°48.914 -999 -999 -999 -999 -999
2007-05-08 08:36:58 51°13.742 2°48.91 -999 -999 -999 -999 -999
2007-05-08 08:37:03 51°13.739 2°48.906 -999 -999 -999 -999 -999
2007-05-08 08:37:08 51°13.736 2°48.901 -999 -999 -999 -999 -999
2007-05-08 08:37:13 51°13.733 2°48.897 -999 -999 -999 -999 -999
2007-05-08 08:37:18 51°13.731 2°48.892 -999 -999 -999 -999 -999
2007-05-08 08:37:23 51°13.729 2°48.888 -999 -999 -999 -999 -999
2007-05-08 08:37:28 51°13.726 2°48.883 -999 -999 -999 -999 -999
2007-05-08 08:37:33 51°13.725 2°48.878 -999 -999 -999 -999 -999
2007-05-08 08:37:38 51°13.723 2°48.872 -999 -999 -999 -999 -999
2007-05-08 08:37:43 51°13.722 2°48.865 -999 -999 -999 -999 -999
2007-05-08 08:37:48 51°13.721 2°48.858 -999 -999 -999 -999 -999
2007-05-08 08:37:53 51°13.722 2°48.85 -999 -999 -999 -999 -999
2007-05-08 08:37:58 51°13.722 2°48.843 -999 -999 -999 -999 -999
2007-05-08 08:38:03 51°13.724 2°48.835 -999 -999 -999 -999 -999
2007-05-08 08:38:08 51°13.726 2°48.828 -999 -999 -999 -999 -999
2007-05-08 08:38:13 51°13.729 2°48.822 -999 -999 -999 -999 -999
2007-05-08 08:38:18 51°13.732 2°48.817 -999 -999 -999 -999 -999
2007-05-08 08:38:23 51°13.736 2°48.813 -999 -999 -999 -999 -999
2007-05-08 08:38:28 51°13.74 2°48.81 -999 -999 -999 -999 -999
2007-05-08 08:38:33 51°13.743 2°48.807 -999 -999 -999 -999 -999
2007-05-08 08:38:38 51°13.747 2°48.805 -999 -999 -999 -999 -999
2007-05-08 08:38:43 51°13.75 2°48.804 -999 -999 -999 -999 -999
2007-05-08 08:38:48 51°13.753 2°48.803 -999 -999 -999 -999 -999
2007-05-08 08:38:53 51°13.756 2°48.802 -999 -999 -999 -999 -999
2007-05-08 08:38:58 51°13.759 2°48.801 -999 -999 -999 -999 -999
2007-05-08 08:39:03 51°13.762 2°48.801 -999 -999 -999 -999 -999
2007-05-08 08:39:08 51°13.764 2°48.8 -999 -999 -999 -999 -999
2007-05-08 08:39:13 51°13.767 2°48.799 -999 -999 -999 -999 -999
2007-05-08 08:39:18 51°13.769 2°48.798 -999 -999 -999 -999 -999
2007-05-08 08:39:23 51°13.772 2°48.797 -999 -999 -999 -999 -999
2007-05-08 08:39:28 51°13.774 2°48.796 -999 -999 -999 -999 -999
2007-05-08 08:39:33 51°13.776 2°48.795 -999 -999 -999 -999 -999
2007-05-08 08:39:38 51°13.778 2°48.794 -999 -999 -999 -999 -999
2007-05-08 08:39:43 51°13.779 2°48.793 -999 -999 -999 -999 -999
2007-05-08 08:39:48 51°13.781 2°48.792 -999 -999 -999 -999 -999
2007-05-08 08:39:53 51°13.782 2°48.792 -999 -999 -999 -999 -999
2007-05-08 08:39:58 51°13.784 2°48.792 -999 -999 -999 -999 -999
2007-05-08 08:40:03 51°13.785 2°48.792 -999 -999 -999 -999 -999
2007-05-08 08:40:08 51°13.786 2°48.791 -999 -999 -999 -999 -999
2007-05-08 08:40:13 51°13.787 2°48.792 -999 -999 -999 -999 -999
2007-05-08 08:40:18 51°13.788 2°48.791 -999 -999 -999 -999 -999
2007-05-08 08:40:23 51°13.789 2°48.791 -999 -999 -999 -999 -999
2007-05-08 08:40:28 51°13.79 2°48.791 -999 -999 -999 -999 -999
2007-05-08 08:40:33 51°13.791 2°48.791 -999 -999 -999 -999 -999
2007-05-08 08:40:38 51°13.793 2°48.791 -999 -999 -999 -999 -999
2007-05-08 08:40:43 51°13.794 2°48.791 -999 -999 -999 -999 -999
2007-05-08 08:40:48 51°13.795 2°48.791 -999 -999 -999 -999 -999
2007-05-08 08:40:53 51°13.796 2°48.79 -999 -999 -999 -999 -999
2007-05-08 08:40:58 51°13.798 2°48.79 -999 -999 -999 -999 -999
2007-05-08 08:41:03 51°13.8 2°48.789 -999 -999 -999 -999 -999
2007-05-08 08:41:08 51°13.802 2°48.788 -999 -999 -999 -999 -999
2007-05-08 08:41:13 51°13.805 2°48.788 -999 -999 -999 -999 -999
2007-05-08 08:41:18 51°13.808 2°48.787 -999 -999 -999 -999 -999
2007-05-08 08:41:23 51°13.811 2°48.787 -999 -999 -999 -999 -999
2007-05-08 08:41:28 51°13.814 2°48.786 -999 -999 -999 -999 -999
2007-05-08 08:41:33 51°13.818 2°48.787 -999 -999 -999 -999 -999
2007-05-08 08:41:38 51°13.822 2°48.788 -999 -999 -999 -999 -999
2007-05-08 08:41:43 51°13.826 2°48.79 -999 -999 -999 -999 -999
2007-05-08 08:41:48 51°13.83 2°48.793 -999 -999 -999 -999 -999
2007-05-08 08:41:53 51°13.835 2°48.797 -999 -999 -999 -999 -999
2007-05-08 08:41:58 51°13.839 2°48.801 -999 -999 -999 -999 -999
2007-05-08 08:42:03 51°13.843 2°48.806 -999 -999 -999 -999 -999
2007-05-08 08:42:08 51°13.846 2°48.812 -999 -999 -999 -999 -999
2007-05-08 08:42:13 51°13.85 2°48.819 -999 -999 -999 -999 -999
2007-05-08 08:42:18 51°13.852 2°48.826 -999 -999 -999 -999 -999
2007-05-08 08:42:23 51°13.855 2°48.834 -999 -999 -999 -999 -999
2007-05-08 08:42:28 51°13.858 2°48.843 -999 -999 -999 -999 -999
2007-05-08 08:42:33 51°13.86 2°48.853 -999 -999 -999 -999 -999
2007-05-08 08:42:38 51°13.864 2°48.864 -999 -999 -999 -999 -999
2007-05-08 08:42:43 51°13.868 2°48.877 -999 -999 -999 -999 -999
2007-05-08 08:42:48 51°13.873 2°48.891 -999 -999 -999 -999 -999
2007-05-08 08:42:53 51°13.878 2°48.907 -999 -999 -999 -999 -999
2007-05-08 08:42:58 51°13.885 2°48.924 -999 -999 -999 -999 -999
2007-05-08 08:43:03 51°13.89 2°48.944 -999 -999 -999 -999 -999
2007-05-08 08:43:08 51°13.899 2°48.962 -999 -999 -999 -999 -999
2007-05-08 08:43:13 51°13.905 2°48.984 -999 -999 -999 -999 -999
2007-05-08 08:43:18 51°13.914 2°49.005 -999 -999 -999 -999 -999
2007-05-08 08:43:23 51°13.921 2°49.029 -999 -999 -999 -999 -999
2007-05-08 08:43:28 51°13.929 2°49.051 -999 -999 -999 -999 -999
2007-05-08 08:43:33 51°13.936 2°49.076 -999 -999 -999 -999 -999
2007-05-08 08:43:38 51°13.942 2°49.1 -999 -999 -999 -999 -999
2007-05-08 08:43:43 51°13.948 2°49.126 -999 -999 -999 -999 -999
2007-05-08 08:43:48 51°13.955 2°49.151 -999 -999 -999 -999 -999
2007-05-08 08:43:53 51°13.962 2°49.177 -999 -999 -999 -999 -999
2007-05-08 08:43:58 51°13.969 2°49.202 -999 -999 -999 -999 -999
2007-05-08 08:44:03 51°13.977 2°49.227 -999 -999 -999 -999 -999
2007-05-08 08:44:08 51°13.982 2°49.253 -999 -999 -999 -999 -999
2007-05-08 08:44:13 51°13.989 2°49.279 -999 -999 -999 -999 -999
2007-05-08 08:44:18 51°13.995 2°49.305 -999 -999 -999 -999 -999
2007-05-08 08:44:23 51°14.003 2°49.33 -999 -999 -999 -999 -999
2007-05-08 08:44:27 51°14.007 2°49.351 -999 -999 -999 -999 -999
2007-05-08 08:44:32 51°14.015 2°49.375 -999 -999 -999 -999 -999
2007-05-08 08:44:38 51°14.023 2°49.406 -999 -999 -999 -999 -999
2007-05-08 08:44:43 51°14.03 2°49.431 -999 -999 -999 -999 -999
2007-05-08 08:44:47 51°14.035 2°49.452 -999 -999 -999 -999 -999
2007-05-08 08:44:52 51°14.042 2°49.478 -999 -999 -999 -999 -999
2007-05-08 08:44:58 51°14.049 2°49.509 -999 -999 -999 -999 -999
2007-05-08 08:45:03 51°14.055 2°49.536 -999 -999 -999 -999 -999
2007-05-08 08:45:07 51°14.06 2°49.557 -999 -999 -999 -999 -999
2007-05-08 08:45:12 51°14.067 2°49.582 -999 -999 -999 -999 -999
2007-05-08 08:45:18 51°14.074 2°49.613 -999 -999 -999 -999 -999
2007-05-08 08:45:22 51°14.08 2°49.633 -999 -999 -999 -999 -999
2007-05-08 08:45:28 51°14.088 2°49.664 -999 -999 -999 -999 -999
2007-05-08 08:45:32 51°14.094 2°49.684 -999 -999 -999 -999 -999
2007-05-08 08:45:38 51°14.102 2°49.715 -999 -999 -999 -999 -999
2007-05-08 08:45:42 51°14.108 2°49.736 -999 -999 -999 -999 -999
2007-05-08 08:45:47 51°14.114 2°49.761 -999 -999 -999 -999 -999
2007-05-08 08:45:53 51°14.122 2°49.791 -999 -999 -999 -999 -999
2007-05-08 08:45:58 51°14.126 2°49.817 -999 -999 -999 -999 -999
2007-05-08 08:46:02 51°14.131 2°49.838 -999 -999 -999 -999 -999
2007-05-08 08:46:07 51°14.137 2°49.866 -999 -999 -999 -999 -999
2007-05-08 08:46:13 51°14.146 2°49.896 -999 -999 -999 -999 -999
2007-05-08 08:46:18 51°14.149 2°49.922 -999 -999 -999 -999 -999
2007-05-08 08:46:23 51°14.157 2°49.947 -999 -999 -999 -999 -999
2007-05-08 08:46:27 51°14.163 2°49.966 -999 -999 -999 -999 -999
2007-05-08 08:46:32 51°14.17 2°49.992 -999 -999 -999 -999 -999
2007-05-08 08:46:38 51°14.179 2°50.022 -999 -999 -999 -999 -999
2007-05-08 08:46:43 51°14.185 2°50.048 -999 -999 -999 -999 -999
2007-05-08 08:46:47 51°14.19 2°50.069 -999 -999 -999 -999 -999
2007-05-08 08:46:52 51°14.196 2°50.095 -999 -999 -999 -999 -999
2007-05-08 08:46:58 51°14.204 2°50.126 -999 -999 -999 -999 -999
2007-05-08 08:47:03 51°14.209 2°50.153 -999 -999 -999 -999 -999
2007-05-08 08:47:07 51°14.213 2°50.174 -999 -999 -999 -999 -999
2007-05-08 08:47:12 51°14.219 2°50.201 -999 -999 -999 -999 -999
2007-05-08 08:47:18 51°14.226 2°50.233 -999 -999 -999 -999 -999
2007-05-08 08:47:22 51°14.231 2°50.255 -999 -999 -999 -999 -999
2007-05-08 08:47:28 51°14.239 2°50.285 -999 -999 -999 -999 -999
2007-05-08 08:47:32 51°14.241 2°50.307 -999 -999 -999 -999 -999
2007-05-08 08:47:38 51°14.247 2°50.34 -999 -999 -999 -999 -999
2007-05-08 08:47:42 51°14.251 2°50.363 -999 -999 -999 -999 -999
2007-05-08 08:47:48 51°14.256 2°50.394 -999 -999 -999 -999 -999
2007-05-08 08:47:53 51°14.26 2°50.421 -999 -999 -999 -999 -999
2007-05-08 08:47:58 51°14.265 2°50.448 -999 -999 -999 -999 -999
2007-05-08 08:48:02 51°14.269 2°50.469 -999 -999 -999 -999 -999
2007-05-08 08:48:07 51°14.275 2°50.496 -999 -999 -999 -999 -999
2007-05-08 08:48:13 51°14.281 2°50.527 -999 -999 -999 -999 -999
2007-05-08 08:48:18 51°14.286 2°50.552 -999 -999 -999 -999 -999
2007-05-08 08:48:22 51°14.289 2°50.574 -999 -999 -999 -999 -999
2007-05-08 08:48:27 51°14.295 2°50.601 -999 -999 -999 -999 -999
2007-05-08 08:48:32 51°14.3 2°50.63 -999 -999 -999 -999 -999
2007-05-08 08:48:38 51°14.306 2°50.662 -999 -999 -999 -999 -999
2007-05-08 08:48:43 51°14.309 2°50.689 -999 -999 -999 -999 -999
2007-05-08 08:48:47 51°14.312 2°50.71 -999 -999 -999 -999 -999
2007-05-08 08:48:52 51°14.315 2°50.738 -999 -999 -999 -999 -999
2007-05-08 08:48:58 51°14.32 2°50.771 -999 -999 -999 -999 -999
2007-05-08 08:49:03 51°14.324 2°50.799 -999 -999 -999 -999 -999
2007-05-08 08:49:07 51°14.329 2°50.82 -999 -999 -999 -999 -999
2007-05-08 08:49:12 51°14.333 2°50.846 -999 -999 -999 -999 -999
2007-05-08 08:49:18 51°14.34 2°50.878 -999 -999 -999 -999 -999
2007-05-08 08:49:23 51°14.346 2°50.904 -999 -999 -999 -999 -999
2007-05-08 08:49:27 51°14.35 2°50.926 -999 -999 -999 -999 -999
2007-05-08 08:49:32 51°14.358 2°50.952 -999 -999 -999 -999 -999
2007-05-08 08:49:37 51°14.363 2°50.979 -999 -999 -999 -999 -999
2007-05-08 08:49:42 51°14.369 2°51.005 -999 -999 -999 -999 -999
2007-05-08 08:49:48 51°14.376 2°51.036 -999 -999 -999 -999 -999
2007-05-08 08:49:52 51°14.379 2°51.059 -999 -999 -999 -999 -999
2007-05-08 08:49:58 51°14.385 2°51.091 -999 -999 -999 -999 -999
2007-05-08 08:50:02 51°14.39 2°51.112 -999 -999 -999 -999 -999
2007-05-08 08:50:07 51°14.394 2°51.139 -999 -999 -999 -999 -999
2007-05-08 08:50:13 51°14.402 2°51.171 -999 -999 -999 -999 -999
2007-05-08 08:50:18 51°14.406 2°51.198 -999 -999 -999 -999 -999
2007-05-08 08:50:22 51°14.41 2°51.219 -999 -999 -999 -999 -999
2007-05-08 08:50:27 51°14.413 2°51.246 -999 -999 -999 -999 -999
2007-05-08 08:50:32 51°14.417 2°51.273 -999 -999 -999 -999 -999
2007-05-08 08:50:38 51°14.421 2°51.305 -999 -999 -999 -999 -999
2007-05-08 08:50:43 51°14.427 2°51.331 -999 -999 -999 -999 -999
2007-05-08 08:50:47 51°14.429 2°51.353 -999 -999 -999 -999 -999
2007-05-08 08:50:52 51°14.436 2°51.378 -999 -999 -999 -999 -999
2007-05-08 08:50:58 51°14.438 2°51.412 -999 -999 -999 -999 -999
2007-05-08 08:51:03 51°14.443 2°51.441 -999 -999 -999 -999 -999
2007-05-08 08:51:07 51°14.445 2°51.464 -999 -999 -999 -999 -999
2007-05-08 08:51:12 51°14.451 2°51.491 -999 -999 -999 -999 -999
2007-05-08 08:51:18 51°14.456 2°51.522 -999 -999 -999 -999 -999
2007-05-08 08:51:23 51°14.46 2°51.549 -999 -999 -999 -999 -999
2007-05-08 08:51:27 51°14.463 2°51.572 -999 -999 -999 -999 -999
2007-05-08 08:51:32 51°14.467 2°51.599 -999 -999 -999 -999 -999
2007-05-08 08:51:37 51°14.47 2°51.627 -999 -999 -999 -999 -999
2007-05-08 08:51:43 51°14.475 2°51.661 -999 -999 -999 -999 -999
2007-05-08 08:51:48 51°14.477 2°51.688 -999 -999 -999 -999 -999
2007-05-08 08:51:52 51°14.48 2°51.709 -999 -999 -999 -999 -999
2007-05-08 08:51:58 51°14.483 2°51.742 -999 -999 -999 -999 -999
2007-05-08 08:52:02 51°14.486 2°51.765 -999 -999 -999 -999 -999
2007-05-08 08:52:08 51°14.491 2°51.798 -999 -999 -999 -999 -999
2007-05-08 08:52:13 51°14.494 2°51.825 -999 -999 -999 -999 -999
2007-05-08 08:52:18 51°14.497 2°51.853 -999 -999 -999 -999 -999
2007-05-08 08:52:22 51°14.499 2°51.875 -999 -999 -999 -999 -999
2007-05-08 08:52:28 51°14.504 2°51.908 -999 -999 -999 -999 -999
2007-05-08 08:52:32 51°14.506 2°51.93 -999 -999 -999 -999 -999
2007-05-08 08:52:38 51°14.509 2°51.962 -999 -999 -999 -999 -999
2007-05-08 08:52:43 51°14.511 2°51.989 -999 -999 -999 -999 -999
2007-05-08 08:52:47 51°14.514 2°52.011 -999 -999 -999 -999 -999
2007-05-08 08:52:53 51°14.519 2°52.043 -999 -999 -999 -999 -999
2007-05-08 08:52:58 51°14.524 2°52.071 -999 -999 -999 -999 -999
2007-05-08 08:53:03 51°14.529 2°52.097 -999 -999 -999 -999 -999
2007-05-08 08:53:07 51°14.532 2°52.119 -999 -999 -999 -999 -999
2007-05-08 08:53:12 51°14.536 2°52.145 -999 -999 -999 -999 -999
2007-05-08 08:53:18 51°14.539 2°52.177 -999 -999 -999 -999 -999
2007-05-08 08:53:23 51°14.543 2°52.206 -999 -999 -999 -999 -999
2007-05-08 08:53:27 51°14.546 2°52.229 -999 -999 -999 -999 -999
2007-05-08 08:53:32 51°14.548 2°52.257 -999 -999 -999 -999 -999
2007-05-08 08:53:38 51°14.552 2°52.29 -999 -999 -999 -999 -999
2007-05-08 08:53:43 51°14.555 2°52.317 -999 -999 -999 -999 -999
2007-05-08 08:53:48 51°14.556 2°52.344 -999 -999 -999 -999 -999
2007-05-08 08:53:52 51°14.558 2°52.367 -999 -999 -999 -999 -999
2007-05-08 08:53:57 51°14.559 2°52.396 -999 -999 -999 -999 -999
2007-05-08 08:54:02 51°14.561 2°52.425 -999 -999 -999 -999 -999
2007-05-08 08:54:08 51°14.564 2°52.457 -999 -999 -999 -999 -999
2007-05-08 08:54:12 51°14.565 2°52.479 -999 -999 -999 -999 -999
2007-05-08 08:54:18 51°14.567 2°52.512 -999 -999 -999 -999 -999
2007-05-08 08:54:22 51°14.569 2°52.534 -999 -999 -999 -999 -999
2007-05-08 08:54:28 51°14.571 2°52.567 -999 -999 -999 -999 -999
2007-05-08 08:54:32 51°14.574 2°52.589 -999 -999 -999 -999 -999
2007-05-08 08:54:38 51°14.577 2°52.623 -999 -999 -999 -999 -999
2007-05-08 08:54:42 51°14.579 2°52.645 -999 -999 -999 -999 -999
2007-05-08 08:54:47 51°14.582 2°52.674 -999 -999 -999 -999 -999
2007-05-08 08:54:52 51°14.586 2°52.701 -999 -999 -999 -999 -999
2007-05-08 08:54:58 51°14.588 2°52.734 -999 -999 -999 -999 -999
2007-05-08 08:55:03 51°14.59 2°52.761 -999 -999 -999 -999 -999
2007-05-08 08:55:07 51°14.592 2°52.784 -999 -999 -999 -999 -999
2007-05-08 08:55:12 51°14.594 2°52.811 -999 -999 -999 -999 -999